Regional Weather Roundup
Issued by NWS Little Rock, AR

Home | Current Version | Previous Version | Text Only | Print | Product List | Glossary On
Versions: 1 2 3 4 5 6 7 8 9 10 11 12 13 14 15 16 17 18 19 20 21 22 23 24 25 26 27 28 29 30 31 32 33 34 35 36 37 38 39 40 41 42 43 44 45 46 47 48 49 50
000
ASUS44 KLZK 231105
RWRLZK

WEATHER ROUNDUP FOR ARKANSAS
NATIONAL WEATHER SERVICE LITTLE ROCK AR
600 AM CDT SAT JUL 23 2016

NOTE: "FAIR" INDICATES FEW OR NO CLOUDS BELOW 12,000 FEET WITH NO
SIGNIFICANT WEATHER AND/OR OBSTRUCTIONS TO VISIBILITY.

ARZ001-003-010-029-231200-
NORTHWEST ARKANSAS

CITY           SKY/WX    TMP DP  RH WIND       PRES   REMARKS
FAYETTEVILLE   CLEAR     71  71 100 CALM      30.01F
FORT SMITH     MOCLDY    80  75  84 CALM      29.97R HX  85
HARRISON       CLEAR     74  73  97 SE3       30.03R
BENTONVILLE    CLEAR     75  70  83 SE5       30.02S
ROGERS         CLEAR     76  73  91 S3        30.02F
SILOAM SPGS    CLEAR     73  64  73 E6        30.01F
HIGHFILL       CLEAR     74  73  97 CALM      30.01S
SPRINGDALE     CLEAR     77  73  88 CALM      30.03
$$

ARZ004-005-016-231200-
NORTH CENTRAL ARKANSAS

CITY           SKY/WX    TMP DP  RH WIND       PRES   REMARKS
BATESVILLE     CLEAR     73  72  94 W3        29.98S
FLIPPIN        PTCLDY    75  72  88 CALM      29.98R
MTN HOME       PTCLDY    76  74  93 CALM      30.00S
$$

ARZ040-041-231200-
WEST CENTRAL ARKANSAS

CITY           SKY/WX    TMP DP  RH WIND       PRES   REMARKS
MENA           CLEAR     77  77 100 CALM      30.01S
MOUNT IDA      CLEAR     76  75  97 CALM      29.98R FOG
$$

ARZ009-017-025-026-028-231200-
NORTHEAST ARKANSAS

CITY           SKY/WX    TMP DP  RH WIND       PRES   REMARKS
CORNING          N/A     75  75 100 SE3       29.98F
JONESBORO      CLEAR     77  74  90 CALM      29.97R
NEWPORT        PTCLDY    77  77 100 CALM      29.98R
WALNUT RIDGE   CLEAR     75  72  88 CALM      29.97S
BLYTHEVILLE    MOCLDY    76  74  93 CALM      29.97R
$$

ARZ022-023-033-042-044-231200-
CENTRAL ARKANSAS

CITY           SKY/WX    TMP DP  RH WIND       PRES   REMARKS
LITTLE ROCK    PTCLDY    80  76  87 CALM      29.97R HX  86
N LITTLE ROCK    N/A     78  75  92 CALM      29.95R
JACKSONVILLE   CLEAR     77  77  98 CALM      29.97R
SEARCY         CLEAR     77  76  96 MISG      29.98R
HOT SPRINGS    PTCLDY    79  74  84 CALM      29.98S
RUSSELLVILLE   CLEAR     77  76  96 CALM      29.97R
$$

ARZ036-231200-
EAST ARKANSAS

CITY           SKY/WX    TMP DP  RH WIND       PRES   REMARKS
WEST MEMPHIS   MOCLDY    78  73  84 VRB5      29.95R
$$

ARZ050-053-066-070-073-231200-
SOUTHWEST ARKANSAS

CITY           SKY/WX    TMP DP  RH WIND       PRES   REMARKS
CAMDEN         CLEAR     77  73  88 CALM      29.97S FOG
TEXARKANA      CLEAR     78  75  90 CALM      29.97R
EL DORADO      CLEAR     76  75  97 S3        29.98R
DE QUEEN       CLEAR     76  75  97 CALM      29.95S FOG
$$

ARZ056-057-069-231200-
SOUTHEAST ARKANSAS

CITY           SKY/WX    TMP DP  RH WIND       PRES   REMARKS
PINE BLUFF     CLEAR     77  75  93 S3        29.97R
STUTTGART      CLEAR     81  73  78 S6        29.97R HX  85
MONTICELLO     CLEAR     78  75  90 CALM      29.98R

$$





USA.gov is the U.S. government's official web portal to all federal, state and local government web resources and services.